Hourly Weather Roundup
Issued by NWS Central Illinois

Home | Current Version | Previous Version | Text Only | Print | Product List | Glossary On
Versions: 1 2 3 4 5 6 7 8 9 10 11 12 13 14 15 16 17 18 19 20 21 22 23 24 25 26 27 28 29 30 31 32 33 34 35 36 37 38 39 40 41 42 43 44 45 46 47 48 49 50
000
NZUS43 KILX 011310
HWRILX

AREA WEATHER ROUNDUP
NATIONAL WEATHER SERVICE, LINCOLN IL
800 AM CDT SUN MAY 01 2016


CITY           SKY/WX    TMP DP  RH WIND       PRES   REMARKS
BLOOMINGTON    FOG       48  48 100 N12       29.94R VSB 1/8
CHAMPAIGN      FOG       54  54 100 N5        29.92R VSB 1/4
DANVILLE       FOG       53  53 100 CALM      29.89R VSB 3/4
DECATUR        FOG       55  53  93 N6        29.92R VSB 1
EFFINGHAM      SUNNY     61  59  94 N6        29.91S
FLORA          SUNNY     64  59  83 CALM      29.91R
GALESBURG      CLOUDY    47  47  99 NE9       29.96R FOG
JACKSONVILLE   CLOUDY    52  51  97 N9        29.93R FOG
LACON          CLOUDY    47  46  96 NE5       29.96R FOG
LAWRENCEVILLE  SUNNY     63  59  87 SE8         N/A
LITCHFIELD     SUNNY     57  55  93 N9        29.91R
$$


CITY           SKY/WX    TMP DP  RH WIND       PRES   REMARKS
LINCOLN        CLOUDY    51  51 100 N8        29.93R FOG
MACOMB         CLOUDY    48  48 100 NE9       29.97S FOG
MATTOON        SUNNY     59  54  83 N6        29.90R
MT CARMEL AP   NOT AVBL
OLNEY-NOBLE AP SUNNY     63  59  88 CALM      29.91R
PARIS          MOSUNNY   60  57  90 N3        29.92R
PEORIA         CLOUDY    49  48  97 NE6       29.95R FOG
PONTIAC        CLOUDY    50  50 100 N10       29.95S FOG
RANTOUL        CLOUDY    54  53  99 N9        29.91S FOG
ROBINSON       SUNNY     61  59  92 CALM      29.90S
SPRINGFIELD    CLOUDY    53  52  96 N9        29.93R FOG
TAYLORVILLE    CLOUDY    54  54 100 N7        29.93R FOG
$$

...REGIONAL REPORTS...


CITY           SKY/WX    TMP DP  RH WIND       PRES   REMARKS
CHICAGO O`HARE FOG       42  42 100 N13       29.98R VSB 1/2
KANKAKEE       CLOUDY    49  48  97 N6        29.94S FOG
MOLINE         CLOUDY    48  45  89 NE12      29.97R FOG
MOUNT STERLING CLOUDY    49  48  99 N12       29.92S FOG
MOUNT VERNON   SUNNY     63  55  77 SW7       29.91R
PITTSFIELD     CLOUDY    53  53 100 N7        29.93R FOG
QUINCY         CLOUDY    50  49  96 NE12      29.93S FOG
ROCKFORD       CLOUDY    46  43  89 NE16      30.01R
$$


CITY           SKY/WX    TMP DP  RH WIND       PRES   REMARKS
BURLINGTON     FOG       47  47 100 NE9       29.95R VSB 1/2
CEDAR RAPIDS   CLOUDY    45  45 100 NE18      29.97R
DES MOINES     CLOUDY    46  42  86 E13       29.99R
KIRKSVILLE     CLOUDY    48  47  96 E5        29.94R FOG
OTTUMWA        CLOUDY    45  45 100 NE12      29.96R FOG
ST LOUIS       MOSUNNY   63  58  83 W5        29.90R
$$


CITY           SKY/WX    TMP DP  RH WIND       PRES   REMARKS
TERRE HAUTE    SUNNY     63  55  75 CALM      29.90R
EVANSVILLE     CLOUDY    61  56  83 S5        29.90R
INDIANAPOLIS   PTSUNNY   62  58  86 SW3       29.90R
LAFAYETTE      FOG       53  53 100 N5        29.90S VSB 1/2
MADISON        CLOUDY    43  40  89 NE13      30.04R
MILWAUKEE      FOG       42  40  92 N14G28    30.02R VSB 1   WCI  35
$$






USA.gov is the U.S. government's official web portal to all federal, state and local government web resources and services.